Location: Newark
(7.0858°N, 171.3717°E)
Time: 07:56:27
(UTC+00:00)

Courier 1B - Pass Details

Date: 02 December 2020
Orbit: 962 x 1209 km, 28.3° (Epoch: 20 January)

Event Time Altitude Azimuth Distance (km) Brightness Sun altitude
Rises 05:17:57 0° 230° (SW) 3,701 12.2 12.4°
Reaches altitude 10° 05:20:44 10° 225° (SW) 2,727 11.5 11.8°
Maximum altitude 05:27:05 52° 150° (SSE) 1,173 8.1 10.4°
Drops below altitude 10° 05:33:20 10° 74° (ENE) 2,685 9.2 8.9°
Sets 05:36:02 0° 70° (ENE) 3,640 9.8 8.3°
